Dewpoint
61 61 59 58 58 57 57 57 57 56 55 54 54 51 50 49 49 47 43 41 38 38 37 37 36 35 35 35 35 35 34 36 38 38 39 39 39 42 53 56 57 59 59 60 59 57 57 56 56 56 54 55 54 54 54 55 55 54 53 52 52 51 51 52 53 53 53 53 53 52 57 56 56 56 57 57 57 59 59 59 60 60 61 62 63
61 60 59 58 57 57 56 56 56 55 55 55 53 52 51 48 48 46 46 42 39 37 37 36 36 36 35 34 35 35 35 36 37 38 38 39 40 42 51 54 56 58 60 60 59 58 58 57 56 57 55 55 53 53 55 56 55 55 52 51 51 51 51 52 53 53 51 52 52 53 54 54 53 54 55 54 55 56 57 58 58 59 59 60 61
61 59 59 58 57 56 56 56 55 55 55 55 52 52 50 51 50 49 47 45 43 37 36 34 34 35 35 35 34 35 35 35 37 38 39 39 39 40 43 51 55 56 58 60 60 60 58 58 56 56 56 56 54 53 54 57 55 52 52 52 52 51 51 51 52 52 51 51 52 52 53 53 53 53 54 54 54 55 55 55 55 55 57 58 59
60 59 59 58 57 56 56 55 55 54 54 54 52 51 50 48 47 46 46 44 41 36 35 33 33 34 34 35 34 34 34 34 36 38 39 39 40 40 40 43 50 53 55 57 59 60 60 59 59 57 57 56 55 54 53 55 55 54 54 52 51 51 51 50 51 51 51 51 51 51 53 53 52 52 52 53 53 53 54 54 54 54 54 55 57
60 59 58 58 57 56 55 55 55 55 54 53 52 50 49 47 45 44 43 41 40 37 35 33 32 33 33 35 33 33 34 34 35 37 39 40 40 41 41 42 42 48 51 54 56 58 59 60 59 58 57 56 56 55 53 56 56 55 52 52 50 51 50 50 50 51 51 51 51 51 52 52 52 51 52 51 52 52 52 52 52 52 53 53 54
60 59 58 57 57 56 56 55 55 54 53 52 52 51 50 48 46 44 44 43 42 39 35 34 32 32 33 33 32 33 33 33 33 36 38 39 41 40 40 40 40 41 42 50 52 55 57 58 58 58 58 57 57 58 56 54 55 55 53 52 52 51 50 50 50 50 51 51 51 51 52 52 52 51 51 50 51 50 51 51 52 51 52 52 52
59 59 58 57 56 56 55 55 53 52 53 52 53 50 50 49 45 46 40 39 39 37 35 35 33 32 32 33 32 32 32 32 33 34 36 39 40 40 41 40 40 40 41 39 45 48 54 56 57 58 58 58 57 58 57 58 56 57 54 53 51 50 50 50 50 50 51 52 52 52 52 51 51 51 50 50 50 50 50 51 51 52 52 51 51
59 58 57 56 56 55 55 52 52 52 53 51 51 50 49 47 45 46 43 40 37 36 33 33 31 31 32 32 32 33 32 32 32 33 35 35 38 40 41 41 40 39 42 39 41 42 50 54 56 56 57 58 58 57 57 57 57 57 56 52 48 50 50 49 50 51 51 52 52 51 51 51 51 50 50 50 50 50 50 51 51 50 52 50 50
56 56 57 56 56 56 55 53 51 52 51 50 50 49 48 47 43 43 46 45 37 37 32 32 31 31 31 31 31 32 31 31 32 32 34 33 35 39 40 40 39 45 40 38 38 39 45 51 54 54 54 57 58 57 57 57 58 55 56 51 51 51 51 49 50 51 51 51 50 51 51 51 50 50 50 50 50 49 49 49 49 49 50 50 51
55 55 55 54 53 53 51 52 51 52 51 51 51 48 47 47 45 40 41 43 39 37 35 31 31 31 31 30 31 30 31 31 32 36 34 33 33 36 39 38 38 40 39 38 38 39 39 44 49 50 49 53 56 58 58 58 58 56 53 52 52 52 50 50 49 50 50 50 50 50 50 50 50 51 50 50 49 49 48 48 48 48 49 49 49
54 54 55 54 53 53 53 52 51 51 51 50 49 47 46 45 47 41 36 39 40 36 34 32 31 30 30 30 30 30 30 31 33 32 33 32 33 35 34 35 37 38 38 37 38 37 39 38 38 39 40 50 54 56 57 57 57 57 53 52 52 52 51 51 49 50 49 50 50 49 50 50 50 50 50 49 49 48 48 48 48 49 49 48 49
53 53 53 53 52 52 51 51 50 50 50 49 48 46 46 45 43 42 37 33 31 33 31 31 30 28 31 31 30 29 29 30 30 31 33 32 32 33 32 32 33 35 35 37 37 37 37 38 39 39 40 44 50 52 53 54 54 56 57 53 53 53 52 51 49 49 52 51 50 50 49 50 50 50 49 48 48 48 48 48 48 48 48 48 49
50 52 52 51 51 51 50 49 49 49 49 49 48 47 46 44 41 39 38 34 30 31 32 31 29 27 26 26 27 27 32 32 29 29 30 31 31 32 33 31 31 31 32 34 35 35 36 37 38 39 40 39 42 46 49 50 51 53 56 57 55 53 52 51 50 50 53 51 49 49 50 49 48 49 48 48 48 48 48 48 48 48 48 49 49
46 48 49 49 49 48 48 49 49 48 48 47 46 43 41 40 39 39 35 36 34 31 33 29 30 27 26 26 27 25 27 29 27 26 27 29 31 31 32 31 30 30 30 30 32 33 34 35 35 37 38 39 39 39 40 41 43 49 53 55 57 56 53 52 51 50 49 49 48 48 49 49 48 47 47 48 48 48 48 48 49 49 50 48 48
43 44 45 46 47 46 44 44 45 45 45 44 43 42 40 39 37 38 37 33 32 34 32 28 31 28 28 22 23 22 27 25 25 26 27 28 29 30 31 31 30 30 30 29 30 30 31 32 33 35 36 38 39 38 38 40 40 43 47 50 53 57 54 52 52 51 50 49 49 49 48 48 46 48 47 47 48 47 48 48 48 49 48 47 47
39 40 41 42 43 44 43 42 41 42 42 41 41 42 42 42 41 38 38 36 31 30 33 31 31 27 29 26 24 23 18 21 22 22 25 25 27 28 30 30 30 30 29 28 28 29 29 30 30 32 33 35 37 38 38 37 39 40 41 43 46 51 55 56 53 52 51 50 50 48 47 47 47 48 48 48 47 47 47 47 48 48 47 47 47
36 36 37 39 40 41 41 41 40 39 40 41 41 41 41 41 40 39 38 41 39 34 33 31 30 29 30 24 26 24 18 19 19 18 22 24 25 27 29 30 29 29 29 29 29 29 29 29 29 30 31 32 34 36 36 36 37 39 40 40 42 46 50 54 56 55 52 51 51 49 46 47 47 47 48 48 48 48 48 47 48 48 47 47 47
33 34 34 36 37 38 39 39 40 39 38 38 38 38 39 39 39 39 38 36 34 34 33 34 30 30 30 26 27 23 20 24 19 25 23 25 25 27 28 28 28 28 28 28 28 28 29 29 29 29 29 30 31 33 34 34 35 36 38 39 44 46 48 50 53 55 56 53 52 51 49 48 47 47 48 47 47 48 48 48 47 47 48 48 47
31 32 33 33 35 36 37 38 38 38 38 38 37 37 37 37 37 37 37 37 35 33 33 34 32 31 31 29 28 27 28 23 21 21 19 24 23 23 24 27 27 27 28 28 28 27 28 28 28 28 28 29 30 31 33 33 35 36 39 42 45 46 48 49 50 52 55 56 53 52 51 50 49 48 47 46 47 48 48 48 46 46 47 47 48
29 29 31 32 33 34 35 36 36 36 36 36 36 37 37 37 37 36 35 35 35 34 33 33 31 32 31 28 28 28 27 25 24 20 20 18 18 23 24 24 26 27 27 27 27 27 27 27 27 27 28 28 29 30 31 32 32 32 35 40 44 46 48 48 49 51 51 52 55 56 51 51 50 49 48 47 47 47 48 48 47 46 47 47 47
26 26 28 30 31 32 33 33 34 34 35 35 35 35 36 35 35 35 35 35 34 34 32 31 30 30 29 29 29 28 27 26 26 25 21 19 19 20 20 22 24 25 25 26 27 27 27 27 27 27 28 28 28 29 30 31 31 31 34 38 42 45 46 48 49 49 49 50 51 53 53 50 49 49 49 48 46 46 48 48 46 47 46 47 47
22 24 24 26 27 29 30 31 32 33 33 33 34 34 35 35 35 34 34 34 34 34 33 32 32 30 29 31 29 28 26 26 26 25 25 24 21 21 21 20 19 21 25 25 25 26 26 26 26 26 27 27 27 28 29 30 31 31 33 37 40 43 45 46 48 49 49 49 49 51 52 47 49 50 49 48 48 46 46 47 47 47 46 46 46
21 21 24 25 25 26 27 27 29 30 31 32 32 33 34 34 34 33 33 33 33 33 33 33 33 31 30 29 28 29 28 27 25 26 23 22 22 22 22 22 21 20 21 23 24 24 26 26 25 25 25 26 26 27 28 29 32 33 36 38 39 41 43 45 47 48 50 50 50 51 51 49 48 49 48 49 48 47 47 47 46 47 46 46 46
20 21 22 23 24 23 24 25 26 27 28 29 30 31 32 33 33 33 33 32 32 32 32 32 32 32 31 31 29 30 30 28 28 28 26 24 24 22 22 22 22 21 24 23 24 25 25 25 26 25 25 25 26 27 27 29 30 34 34 36 39 41 43 44 46 48 50 50 51 51 51 51 50 50 48 48 48 48 47 48 47 47 46 46 46
20 20 22 22 23 22 23 23 24 25 27 27 28 29 30 30 31 31 32 32 32 31 31 31 31 30 30 30 30 30 29 29 29 28 27 27 26 23 22 23 22 22 23 23 22 25 25 25 25 26 25 25 27 27 27 28 29 31 35 34 38 40 41 43 44 46 49 50 50 51 51 50 50 49 49 49 49 49 49 48 47 47 47 47 48
20 20 22 22 22 22 22 22 23 24 25 25 26 27 28 28 29 29 29 31 31 30 30 29 29 29 29 29 29 29 28 29 27 28 27 26 24 23 23 23 22 23 24 23 24 23 23 26 25 25 26 26 26 26 26 27 28 32 34 32 34 39 41 42 43 45 48 49 49 50 49 49 49 49 49 50 49 49 48 49 49 48 48 48 49
21 22 22 22 22 22 22 21 22 22 22 22 24 23 25 26 27 28 27 29 29 29 29 29 30 30 29 29 29 29 28 28 27 27 27 27 26 25 25 23 22 22 22 23 23 22 21 23 26 25 25 26 26 26 26 26 29 32 33 32 31 35 39 41 42 44 45 48 49 49 49 48 49 49 49 48 48 48 48 48 48 48 48 48 48
21 22 21 22 22 22 21 21 22 22 22 22 22 22 23 23 23 24 24 28 28 27 28 28 28 28 28 28 28 29 29 28 28 27 26 26 26 26 25 23 23 22 23 22 22 22 23 23 24 25 25 25 26 26 28 28 28 34 32 30 30 32 37 40 42 43 43 46 48 48 48 48 48 48 48 47 46 46 47 48 46 46 46 47 47
21 22 20 20 21 21 20 20 21 21 21 21 21 22 22 22 22 22 22 25 26 25 27 27 27 27 28 27 28 29 29 29 28 27 27 26 25 25 25 24 24 22 22 22 22 22 22 23 22 24 25 25 26 27 26 26 28 30 29 30 29 30 33 38 41 42 43 44 46 47 47 47 47 47 46 46 46 46 46 46 46 46 47 47 46
21 21 20 19 20 22 20 19 20 20 20 20 20 20 21 20 21 21 22 24 24 23 23 25 26 26 28 28 27 28 29 28 28 28 27 27 26 25 25 24 24 23 23 22 23 23 23 23 23 23 24 25 26 27 27 26 30 30 29 29 29 29 34 36 39 41 42 44 44 46 46 46 46 46 46 45 46 47 46 45 46 46 47 47 47
20 19 18 17 18 17 18 18 19 19 19 19 20 19 19 18 18 19 19 21 21 21 21 23 24 25 25 26 27 27 28 28 28 28 28 27 27 26 25 25 24 23 23 22 22 24 23 22 22 23 23 24 26 26 27 28 29 29 29 28 28 32 33 34 36 39 41 42 43 44 45 45 44 45 45 45 45 46 46 45 45 46 47 46 46
20 19 18 17 18 17 17 17 17 16 16 17 18 19 19 18 18 18 18 19 18 18 18 20 22 23 23 23 23 25 26 27 27 28 28 27 27 27 26 26 25 24 23 23 22 23 24 24 23 22 23 23 23 25 25 27 29 31 28 29 28 31 30 30 34 36 39 41 42 42 44 45 43 44 44 44 44 44 45 44 45 45 45 45 46
19 19 18 18 18 18 18 18 17 17 16 16 16 16 16 15 16 17 18 18 17 16 17 17 17 18 20 21 21 22 24 25 26 27 27 27 27 27 27 26 25 25 24 23 23 23 24 24 24 23 22 23 22 24 24 25 26 27 30 28 28 28 28 28 28 33 37 39 41 42 43 44 44 43 43 43 44 44 44 44 43 43 44 44 45
18 19 18 18 18 17 17 17 16 16 15 16 16 16 15 15 15 16 16 15 15 15 15 15 16 17 17 17 18 19 21 23 23 24 26 26 26 26 27 26 25 25 25 24 23 23 23 23 23 24 22 24 21 25 23 24 25 26 26 28 28 28 27 27 27 27 34 37 39 41 42 44 44 44 43 43 43 43 43 43 43 43 44 43 44
18 18 18 18 18 18 17 17 16 16 15 15 15 15 15 15 15 15 16 15 14 14 13 13 14 15 16 16 16 17 19 19 20 21 24 25 25 26 26 26 26 26 25 24 24 23 23 23 24 23 23 23 22 22 24 25 25 26 25 26 27 28 28 27 26 27 31 34 38 40 41 42 43 43 42 42 43 43 43 43 43 42 43 43 43
17 17 17 17 17 17 16 16 16 15 15 15 15 16 16 16 16 16 15 15 14 14 14 13 13 13 13 14 15 16 17 18 18 18 20 22 24 24 24 25 26 25 25 25 24 23 23 22 23 23 23 22 21 22 23 25 25 25 25 26 27 27 27 27 26 25 28 32 35 37 40 40 41 43 42 42 41 41 42 42 42 42 42 42 42
16 16 16 15 15 15 14 14 14 14 14 15 16 16 16 16 16 16 15 14 14 14 13 13 17 14 13 13 14 15 16 17 17 18 18 19 20 22 23 23 23 24 25 25 25 24 23 23 22 23 23 22 22 21 22 22 23 24 25 25 25 26 27 27 26 26 28 30 32 34 38 39 40 42 42 42 41 40 40 41 42 41 41 41 41
15 15 14 14 14 13 13 12 12 12 13 14 14 15 15 15 15 14 14 13 13 13 13 13 13 13 14 14 14 15 15 16 16 17 18 19 19 20 21 21 22 23 23 24 24 24 24 23 22 22 22 21 21 20 21 22 22 21 23 24 25 26 26 26 25 25 25 25 26 28 34 37 39 41 41 41 41 39 41 40 40 41 41 41 40
14 14 13 12 11 11 11 11 12 12 12 13 13 13 12 12 12 12 12 12 13 13 13 14 14 14 15 15 16 16 16 17 17 17 18 18 20 20 20 21 21 21 21 22 22 23 23 22 22 22 22 22 21 20 21 22 22 22 21 21 22 24 25 25 25 25 25 24 26 29 29 32 35 37 40 41 40 39 40 39 40 40 40 40 40
12 10 10 9 10 10 11 11 11 12 11 10 10 10 10 11 12 13 14 15 15 16 16 16 16 16 16 16 17 17 17 17 17 18 18 18 19 19 20 20 20 20 21 21 21 21 22 22 22 21 21 21 21 20 20 22 22 22 23 22 20 21 23 24 24 24 25 24 23 24 28 30 33 35 38 40 40 39 40 39 39 39 38 40 41
9 8 9 9 9 9 9 9 9 9 8 8 8 10 12 15 16 16 17 17 17 17 17 17 17 17 17 17 17 17 18 21 22 23 23 23 22 22 22 22 22 21 21 22 21 21 21 21 21 20 21 21 21 20 19 19 19 19 20 23 22 22 22 23 23 24 24 23 23 23 23 23 25 27 31 35 37 38 37 38 38 37 38 39 40
7 8 8 8 8 8 7 7 7 7 6 6 11 16 19 16 15 15 16 16 16 16 16 16 16 16 17 17 18 20 21 22 22 23 24 25 25 23 22 22 23 23 22 22 21 21 21 21 20 20 19 19 19 20 20 19 19 20 20 22 21 21 22 21 22 22 23 23 22 22 22 23 23 24 28 30 33 35 36 36 36 36 37 39 39
6 7 7 6 6 6 6 5 5 4 4 5 13 17 19 20 16 15 16 16 15 15 15 15 15 15 15 16 16 17 18 19 18 21 22 23 24 24 25 25 24 23 23 23 23 22 22 21 21 21 20 19 19 19 20 20 20 19 19 20 21 21 21 21 20 21 23 22 22 22 22 22 22 22 24 27 30 32 34 34 37 38 38 39 38
5 6 5 4 4 4 3 3 3 3 2 9 14 17 19 20 20 15 15 15 15 14 13 13 12 12 12 13 14 14 14 14 14 14 17 20 22 22 23 24 24 25 26 24 24 23 23 22 22 22 21 20 19 19 19 21 20 19 19 20 20 20 20 21 20 20 21 22 21 21 21 21 21 21 22 24 26 29 31 34 37 38 39 39 38
4 3 3 3 2 2 2 1 1 1 1 9 14 17 18 19 20 18 14 13 13 13 12 10 10 10 9 8 8 8 9 15 15 13 13 13 18 20 21 22 23 24 25 26 26 25 24 24 24 24 22 21 20 20 20 21 22 19 19 19 19 20 20 20 20 20 21 22 21 20 20 20 20 21 20 22 23 25 28 34 36 37 38 38 38
3 2 2 2 2 1 1 1 0 0 -0 7 15 17 18 19 19 19 14 13 12 11 9 8 6 5 5 4 4 4 3 5 5 6 8 10 12 13 13 13 13 16 20 22 23 23 23 23 23 24 24 25 23 22 22 23 22 21 20 21 20 20 20 20 20 20 20 22 20 19 20 20 20 19 19 20 22 23 24 29 34 36 37 38 37
1 1 1 0 0 1 0 0 -0 -1 -2 10 15 16 17 19 19 19 13 12 10 9 7 6 5 5 5 6 5 5 5 5 5 8 8 8 11 14 16 17 18 18 18 18 18 19 19 20 19 20 21 22 23 25 25 25 24 23 23 22 21 21 21 21 21 21 19 21 20 19 20 20 20 19 19 19 21 21 22 28 32 34 36 37 37
0 0 0 -0 -1 -1 -1 -1 -1 -2 -2 11 14 15 17 18 20 13 10 9 8 7 7 6 5 5 4 4 4 5 5 5 11 15 15 11 14 15 15 15 15 15 14 16 19 21 19 19 20 22 22 21 25 24 26 26 26 25 26 25 24 23 22 21 21 22 22 20 20 18 20 21 21 18 18 21 22 20 22 22 29 32 34 36 37
-1 -2 -2 -2 -1 -1 -2 -2 -2 -2 -2 5 13 15 16 18 16 10 9 8 8 7 5 5 4 4 4 4 4 4 5 4 11 16 17 17 12 13 14 15 16 17 17 16 19 21 22 22 23 24 25 27 30 30 30 29 28 28 26 24 23 23 22 21 21 21 21 20 20 18 20 19 20 19 20 21 20 20 20 21 22 30 33 35 36
-2 -3 -3 -2 -2 -2 -2 -3 -3 -3 -2 4 12 14 16 16 15 10 8 7 7 7 6 6 5 5 5 10 10 4 4 4 13 17 18 16 14 15 15 14 14 13 14 15 13 14 20 21 21 22 23 26 26 27 29 31 31 30 27 25 24 23 22 22 21 21 21 22 20 20 20 19 21 21 19 18 19 22 20 20 22 24 30 33 35
-3 -3 -3 -3 -4 -3 -4 -3 1 -0 -2 2 10 13 14 16 12 10 9 9 8 7 7 6 5 4 3 7 11 11 9 11 18 19 19 17 14 15 15 15 14 14 14 15 15 15 16 16 15 15 18 19 18 20 23 26 27 30 28 28 28 25 23 22 22 22 21 22 21 20 19 19 20 21 18 17 16 19 22 22 22 21 21 26 29